Linden, NJ

10:53 AM EDT on October 21, 2017 (GMT -0400)
Linden

Weather History for KLDJ - August, 2014

Change the Weather History Date:

Thursday, August 14, 2014

  Actual Average (KEWR) Record (KEWR)
Temperature  
Mean Temperature 74 °F -  
Max Temperature 82 °F 85 °F 98 °F (1988)
Min Temperature 65 °F 68 °F 50 °F (1941)
Cooling Degree Days 8    
Growing Degree Days 24 (Base 50)    
Moisture  
Dew Point 55 °F    
Average Humidity 51    
Maximum Humidity 70    
Minimum Humidity 34    
Precipitation  
Precipitation 0.00 in - - ()
Sea Level Pressure  
Sea Level Pressure 29.86 in    
Wind  
Wind Speed 8 mph (WNW)    
Max Wind Speed 18 mph    
Max Gust Speed 26 mph    
Visibility 10 miles    
Events      
Averages and records for this station are not official NWS values.
T = Trace of Precipitation, MM = Missing Value Source: NWS Daily Summary

Daily Weather History Graph

Daily Weather History Graph

Search for Another Location

Airport or City:

Trip Planner

Search our weather history database for the weather conditions in past years. The results will help you decide how hot, cold, wet, or windy it might be!

Date:

Astronomy

Aug. 14, 2014 Rise Set
Actual Time 6:06 AM EDT 7:56 PM EDT
Civil Twilight 5:36 AM EDT 8:25 PM EDT
Nautical Twilight 5:01 AM EDT 9:01 PM EDT
Astronomical Twilight 4:22 AM EDT 9:39 PM EDT
Moon 10:15 PM EDT (8/14) 10:41 AM EDT (8/14)
Length of Visible Light 14h 48m
Length of Day
13h 49m
Waning Gibbous, 79% of the Moon is Illuminated
Aug 14
Waning Gibbous
Aug 17
Last Quarter
Aug 25
New
Sep 2
First Quarter
Sep 8
Full

Hourly Weather History & Observations

Time (EDT) Temp. Dew Point Humidity Pressure Visibility Wind Dir Wind Speed Gust Speed Precip Events Conditions
12:15 AM 75.6 °F 57.7 °F 54% 29.81 in 10.0 mi NW 11.5 mph 20.7 mph N/A   Clear
12:35 AM 74.8 °F 57.2 °F 54% 29.81 in 10.0 mi NW 9.2 mph 17.3 mph N/A   Clear
12:55 AM 74.3 °F 57.4 °F 55% 29.81 in 10.0 mi NW 8.1 mph - N/A   Clear
1:15 AM 72.7 °F 58.5 °F 61% 29.81 in 10.0 mi WNW 3.5 mph - N/A   Clear
1:35 AM 72.5 °F 58.6 °F 62% 29.81 in 10.0 mi NW 9.2 mph - N/A   Clear
1:55 AM 72.0 °F 58.1 °F 62% 29.82 in 10.0 mi NW 9.2 mph - N/A   Clear
2:15 AM 71.1 °F 57.9 °F 63% 29.82 in 10.0 mi NW 10.4 mph - N/A   Clear
2:35 AM 70.9 °F 56.7 °F 61% 29.82 in 10.0 mi WNW 6.9 mph - N/A   Clear
2:55 AM 69.8 °F 56.7 °F 63% 29.83 in 10.0 mi NW 4.6 mph - N/A   Clear
3:15 AM 70.0 °F 56.5 °F 62% 29.82 in 10.0 mi WNW 10.4 mph - N/A   Clear
3:35 AM 69.3 °F 56.3 °F 63% 29.83 in 10.0 mi WNW 6.9 mph - N/A   Clear
3:55 AM 69.1 °F 56.3 °F 64% 29.83 in 10.0 mi WNW 8.1 mph - N/A   Clear
4:15 AM 68.0 °F 56.3 °F 66% 29.83 in 10.0 mi WNW 8.1 mph - N/A   Clear
4:35 AM 67.5 °F 55.9 °F 66% 29.83 in 10.0 mi WNW 6.9 mph - N/A   Clear
4:55 AM 67.5 °F 55.6 °F 66% 29.84 in 10.0 mi WNW 5.8 mph - N/A   Clear
5:15 AM 66.9 °F 55.6 °F 67% 29.84 in 10.0 mi WNW 5.8 mph - N/A   Clear
5:35 AM 66.7 °F 55.4 °F 67% 29.85 in 10.0 mi WNW 4.6 mph - N/A   Clear
5:55 AM 65.7 °F 55.4 °F 69% 29.86 in 10.0 mi WNW 8.1 mph - N/A   Clear
6:15 AM 66.0 °F 55.4 °F 69% 29.86 in 10.0 mi WNW 4.6 mph - N/A   Clear
6:35 AM 65.5 °F 55.4 °F 70% 29.88 in 10.0 mi WNW 5.8 mph - N/A   Clear
6:55 AM 65.7 °F 55.6 °F 70% 29.88 in 10.0 mi WNW 4.6 mph - N/A   Clear
7:15 AM 66.4 °F 55.8 °F 69% 29.89 in 10.0 mi WNW 6.9 mph - N/A   Clear
7:35 AM 67.1 °F 55.9 °F 67% 29.90 in 10.0 mi NW 6.9 mph - N/A   Clear
7:55 AM 68.0 °F 55.8 °F 65% 29.90 in 10.0 mi NW 6.9 mph - N/A   Clear
8:15 AM 68.9 °F 55.8 °F 63% 29.91 in 10.0 mi NW 6.9 mph - N/A   Clear
8:35 AM 69.3 °F 55.9 °F 62% 29.91 in 10.0 mi NW 10.4 mph - N/A   Clear
8:55 AM 69.8 °F 55.4 °F 60% 29.91 in 10.0 mi WNW 11.5 mph 17.3 mph N/A   Clear
9:15 AM 70.7 °F 55.4 °F 58% 29.91 in 10.0 mi NW 9.2 mph - N/A   Clear
9:35 AM 71.2 °F 54.9 °F 56% 29.91 in 10.0 mi NW 9.2 mph - N/A   Clear
9:55 AM 72.3 °F 54.0 °F 52% 29.91 in 10.0 mi NW 8.1 mph - N/A   Clear
10:15 AM 72.9 °F 52.5 °F 49% 29.91 in 10.0 mi NNW 8.1 mph - N/A   Clear
10:35 AM 73.8 °F 53.4 °F 49% 29.91 in 10.0 mi WNW 8.1 mph - N/A   Clear
10:55 AM 74.7 °F 52.5 °F 46% 29.91 in 10.0 mi West 3.5 mph 9.2 mph N/A   Clear
11:15 AM 75.2 °F 52.5 °F 45% 29.91 in 10.0 mi West 5.8 mph - N/A   Clear
11:35 AM 75.2 °F 52.5 °F 45% 29.90 in 10.0 mi NNW 3.5 mph - N/A   Clear
11:55 AM 76.3 °F 53.4 °F 45% 29.90 in 10.0 mi WNW 10.4 mph 16.1 mph N/A   Clear
12:15 PM 77.7 °F 53.6 °F 43% 29.90 in 10.0 mi West 12.7 mph - N/A   Clear
12:35 PM 79.2 °F 53.2 °F 41% 29.89 in 10.0 mi WNW 13.8 mph 20.7 mph N/A   Scattered Clouds
12:55 PM 79.2 °F 52.3 °F 39% 29.89 in 10.0 mi WNW 16.1 mph 20.7 mph N/A   Scattered Clouds
1:15 PM 80.1 °F 51.3 °F 37% 29.89 in 10.0 mi WNW 11.5 mph 26.5 mph N/A   Scattered Clouds
1:35 PM 79.7 °F 50.9 °F 37% 29.88 in 10.0 mi NW 5.8 mph - N/A   Scattered Clouds
1:55 PM 80.6 °F 51.6 °F 36% 29.87 in 10.0 mi NW 18.4 mph 21.9 mph N/A   Scattered Clouds
2:15 PM 79.9 °F 50.0 °F 35% 29.87 in 10.0 mi West 10.4 mph 23.0 mph N/A   Mostly Cloudy
2:35 PM 80.2 °F 51.6 °F 37% 29.87 in 10.0 mi WNW 11.5 mph 20.7 mph N/A   Overcast
2:55 PM 80.8 °F 52.0 °F 37% 29.86 in 10.0 mi WNW 10.4 mph 18.4 mph N/A   Scattered Clouds
3:15 PM 81.5 °F 51.6 °F 35% 29.86 in 10.0 mi West 12.7 mph 18.4 mph N/A   Scattered Clouds
3:35 PM 80.6 °F 51.6 °F 36% 29.86 in 10.0 mi WNW 10.4 mph - N/A   Scattered Clouds
3:55 PM 82.0 °F 51.8 °F 35% 29.86 in 10.0 mi West 12.7 mph 17.3 mph N/A   Mostly Cloudy
4:15 PM 81.5 °F 52.3 °F 36% 29.85 in 10.0 mi WNW 6.9 mph - N/A   Scattered Clouds
4:35 PM 81.7 °F 52.2 °F 36% 29.85 in 10.0 mi WNW 12.7 mph - N/A   Clear
4:55 PM 81.0 °F 51.8 °F 36% 29.85 in 10.0 mi NW 11.5 mph - N/A   Mostly Cloudy
5:15 PM 81.0 °F 52.5 °F 37% 29.84 in 10.0 mi NW 10.4 mph - N/A   Mostly Cloudy
5:35 PM 82.4 °F 51.1 °F 34% 29.84 in 10.0 mi West 10.4 mph 16.1 mph N/A   Scattered Clouds
5:55 PM 81.7 °F 51.4 °F 35% 29.84 in 10.0 mi West 10.4 mph - N/A   Clear
6:15 PM 81.0 °F 51.8 °F 36% 29.84 in 10.0 mi West 6.9 mph - N/A   Clear
6:35 PM 81.5 °F 52.9 °F 37% 29.84 in 10.0 mi WNW 6.9 mph - N/A   Scattered Clouds
6:55 PM 80.2 °F 52.2 °F 38% 29.84 in 10.0 mi West 8.1 mph - N/A   Scattered Clouds
7:15 PM 79.9 °F 53.1 °F 39% 29.84 in 10.0 mi West 5.8 mph - N/A   Mostly Cloudy
7:35 PM 79.7 °F 52.7 °F 39% 29.85 in 10.0 mi West 5.8 mph - N/A   Scattered Clouds
7:55 PM 79.2 °F 53.6 °F 41% 29.85 in 10.0 mi West 4.6 mph - N/A   Mostly Cloudy
8:15 PM 78.8 °F 54.3 °F 43% 29.86 in 10.0 mi West 5.8 mph - N/A   Scattered Clouds
8:35 PM 78.3 °F 54.7 °F 44% 29.86 in 10.0 mi West 5.8 mph - N/A   Scattered Clouds
8:55 PM 77.9 °F 55.4 °F 46% 29.86 in 10.0 mi West 4.6 mph - N/A   Clear
9:15 PM 77.4 °F 55.4 °F 47% 29.87 in 10.0 mi West 4.6 mph - N/A   Scattered Clouds
9:35 PM 77.0 °F 56.3 °F 49% 29.88 in 10.0 mi West 6.9 mph - N/A   Mostly Cloudy
9:55 PM 75.9 °F 56.5 °F 51% 29.88 in 10.0 mi West 6.9 mph - N/A   Scattered Clouds
10:15 PM 75.2 °F 56.8 °F 53% 29.88 in 10.0 mi West 4.6 mph - N/A   Clear
10:35 PM 74.5 °F 57.7 °F 56% 29.89 in 10.0 mi West 8.1 mph - N/A   Clear
10:55 PM 73.8 °F 58.6 °F 59% 29.89 in 10.0 mi West 6.9 mph - N/A   Clear
11:15 PM 72.7 °F 59.9 °F 64% 29.89 in 10.0 mi West 6.9 mph - N/A   Clear
11:35 PM 72.0 °F 60.4 °F 67% 29.90 in 10.0 mi WNW 8.1 mph - N/A   Clear
11:55 PM 70.3 °F 59.9 °F 69% 29.91 in 10.0 mi WNW 6.9 mph - N/A   Clear